STARLINK-1263, 45405

Orbit data source: Space-Track

STARLINK-1263, 45405 is a payload satellite owned by SpaceX/Seattle (US) in LEO that was launched on Wed, 18 Mar 2020 UTC via an FALCON 9 launch vehicle from the Air Force Eastern Test Range (AFETR). Payloads include a variety of satellites, spacecraft, and rockets equipped with specific instruments for various scientific and technological missions. These include communications satellites like Starlink; space stations such as the ISS; scientific satellites like the Hubble; Earth observation satellites from companies like Planet Labs, Umbra, and HawkEye 360; GPS; miniature CubeSats for education and research; and military/defense satellites.

Loading next visibility...
STARLINK-1263 details
Identifier
45405, 2020-019AX
Orbit
LEO
Last TLE update14 hours ago
Origin
Flag of USSpaceX/Seattle (US)
ManufacturerSpaceX/Seattle
MissionOperational Commercial Communications
Bus & MotorSTARLINK, Unknown motor
Mass260 kg wet, ~248 kg dry
Launch date (UTC)
2020-03-18 (5 years ago)
Launch vehicle
FALCON 9
Launch site
Air Force Eastern Test Range (AFETR)
Object type
Payload
Rocket body
Debris
Shape & HBRBox + 1 Pan, 8.86 m
Radar Cross Section13.562 m², Large (>1 m²)

Expand to show TLE details & history

TLE from 14 hours ago
0 STARLINK-1263
1 45405U 20019AX  25014.85415556 -.00000072  00000-0  14051-4 0  9996
2 45405  53.0552 216.8428 0001483  93.2477 266.8682 15.06405302266737
Epoch: 2025-01-14T20:29Z
Definitive object data (Epoch: 2025-01-14T20:29:59.04Z)
Latitude0.00001°
Longitude154.79193°
Altitude548.131 km
Speed7.589 km/s
True Right ascension14h 27m 22s
True Declination0° 00' 00"
Sunlit
Object was in daylight at TLE epoch
Visualization TLE readout
Latitude-50.67621°
Longitude86.24616°
Altitude565.724 km
Speed7.578 km/s
Apparent Right ascension03h 22m 21s
Apparent Declination-80° 12' 38"
Sunlit
Object is in daylight
Visualization observer readout
Local Sidereal Time11:09:57
Azimuth192.114° SSW
Elevation-43.735°
Doppler factor1
Orbital elements
Apogee altitude548.493 km
Perigee altitude546.439 km
Semi-major axis6,925.603 km
Eccentricity0.0001483
Inclination53.0552°
RAAN216.8428°
Arg. of periapsis93.2477°
True anomaly266.85123°
Mean anomaly266.8682°
Eccentric anomaly266.85972°
Mean motion3.7658 °/min
BSTAR0.000014051
Orbital period95.6 mins
Loading maneuver chart data...
Loading historical data...
Loading historical data...
Loading historical data...
Loading historical data...
Loading historical data...
Loading historical data...
Loading historical data...

STARLINK-1263 Visibility forecast

Observer location: undefined°, undefined

Span
Click to sort rows by Start time (UTC) header in descending order
Start Az.
Max El. time (UTC)
Max El. Az.
Max El.
End time (UTC)
End Az.
8 mins2025-01-15 15:45:55.029Z217.844° SW2025-01-15 15:49:55.029Z136.225° SSE41.999°2025-01-15 15:53:55.029Z55.702° ENE
5 mins2025-01-15 17:27:55.029Z296.58° NW2025-01-15 17:29:55.029Z339.947° N22.951°2025-01-15 17:32:55.029Z29.939° NE
4 mins2025-01-15 20:49:55.029Z353.247° N2025-01-15 20:50:55.029Z11.045° NNE17.027°2025-01-15 20:53:55.029Z60.018° ENE
6 mins2025-01-15 22:28:55.029Z320.097° NNW2025-01-15 22:31:55.029Z75.86° E40.261°2025-01-15 22:34:55.029Z118.046° SE
4 mins2025-01-16 00:08:55.029Z261.696° W2025-01-16 00:10:55.029Z226.433° WSW16.62°2025-01-16 00:12:55.029Z195.047° SSW
|